{"data":{"norad_id":63711,"epoch":"2026-09-20T15:16:19.295616Z","epoch_age_seconds":141189,"freshness":"FRESH","line1":"1 63711U 25087Q   26263.63633444  .00024939  00000+0  81227-3 0  9991","line2":"2 63711  53.1618  32.8579 0000952  83.1951 276.9159 15.31718034 79065","mean_motion":15.31718034,"eccentricity":9.52e-5,"inclination_deg":53.1618,"raan_deg":32.8579,"arg_perigee_deg":83.1951,"mean_anomaly_deg":276.9159,"bstar":0.00081227,"rev_number":7906,"period_min":94.012081077319,"perigee_km":470.03422936531,"apogee_km":471.3382453097,"semimajor_km":6848.8232373375,"source":"CELESTRAK","updated_at":"2026-09-21T09:00:35.065025Z"}}